[[[{"header":{"parameterUnit":"kt","parameterCategory":2,"dx":1,"dy":1,"la1":30.253999710083008,"la2":30.299108505249023,"lo1":-89.0895004272461,"lo2":-89.04439544677734,"nx":28,"ny":28,"refTime":"2022-10-06T21:00:00:Z","depth":"0","parameterNumber":2,"parameterNumberName":"U-component_of_CURRENTS"},"data":[0.2513,0.2508,0.2549,0.2524,0.2531,0.2514,0.2517,0.2514,0.2515,0.2464,0.2439,0.2437,0.2463,0.216,0.1989,0.1946,0.1758,0.1474,0.144,0.1932,0.1978,0.2022,0.1976,0.1558,0.1556,0.1115,0.1107,0.1102,0.2584,0.2614,0.2624,0.264,0.2629,0.2657,0.266,0.2651,0.2614,0.2586,0.2555,0.2612,0.265,0.2729,0.2767,0.252,0.2592,0.2324,0.2199,0.2304,0.2945,0.2934,0.2716,0.2716,0.2716,0.2716,0.2716,0.2716,0.2711,0.2706,0.2745,0.275,0.2751,0.2751,0.2732,0.2736,0.2711,0.2671,0.2697,0.2684,0.2791,0.2922,0.2947,0.2971,0.2884,0.2971,0.2681,0.2545,0.2548,0.3153,0.3027,0.3027,0.3027,0.3026,0.3026,0,0.2807,0.2839,0.2859,0.2864,0.2856,0.2861,0.2851,0.2834,0.2861,0.2837,0.2812,0.2816,0.2888,0.2968,0.3039,0.3154,0.3074,0.3262,0.3118,0.2957,0.2719,0.2799,0.3541,0.3419,0.3421,0.3422,0.3423,0.3424,0.2933,0.2924,0.2975,0.2975,0.2987,0.2968,0.2962,0.2991,0.298,0.2974,0.2959,0.2965,0.2986,0.3065,0.3213,0.3311,0.3213,0.3313,0.3418,0.3226,0.2977,0.2822,0.2878,0.3444,0.3442,0.344,0.3438,0,0.3007,0.3058,0.3044,0.309,0.3095,0.3066,0.3078,0.3059,0.3072,0.3052,0.3047,0.3104,0.3146,0.3272,0.3411,0.3461,0.3396,0.3539,0.3536,0.3558,0.3324,0.3079,0.2647,0.2679,0.3402,0.3398,0.3395,0,0.3131,0.3112,0.3182,0.3174,0.3144,0.3193,0.3152,0.3178,0.3196,0.3183,0.3248,0.3246,0.3404,0.345,0.3575,0.36,0.3659,0.3689,0.3714,0.3766,0.3759,0.3713,0.3485,0.3859,0.386,0.3861,0.3861,0,0.3234,0.3249,0.3235,0.3247,0.3298,0.328,0.3295,0.3328,0.3332,0.3347,0.3342,0.341,0.3437,0.3532,0.3657,0.3713,0.3736,0.3846,0.3769,0.376,0.3867,0.3867,0.3556,0.3862,0.3862,0.3863,0.3863,0,0.3343,0.3364,0.3334,0.3378,0.3381,0.3361,0.3384,0.3386,0.3426,0.3452,0.3488,0.3569,0.3599,0.369,0.3772,0.3792,0.3851,0.3926,0.3926,0.3905,0.3992,0.3937,0.3749,0.3609,0.3945,0.3946,0.3947,0,0.3455,0.3436,0.349,0.3458,0.3462,0.354,0.3527,0.3561,0.3599,0.3609,0.3695,0.3734,0.3822,0.385,0.3869,0.3996,0.3966,0.4002,0.4132,0.4134,0.4022,0.3831,0.3867,0.3771,0.396,0.3958,0.3957,0,0.355,0.3619,0.3614,0.363,0.3682,0.3689,0.3673,0.371,0.3706,0.3751,0.3751,0.384,0.3898,0.3968,0.4066,0.4081,0.3987,0.4171,0.4179,0.4114,0.3991,0.3865,0.3844,0.4068,0.4067,0.4066,0.3967,0,0.3723,0.3722,0.3697,0.3733,0.3751,0.3742,0.3813,0.3819,0.3863,0.3914,0.3951,0.406,0.4152,0.4171,0.4256,0.4237,0.4266,0.4362,0.4452,0.4337,0.4308,0.4298,0.4476,0.4481,0.4485,0.4488,0,0,0.3828,0.3822,0.3896,0.3884,0.3906,0.3999,0.398,0.4012,0.4091,0.4109,0.4148,0.4286,0.4382,0.4429,0.4396,0.4447,0.4465,0.4479,0.4395,0.4384,0.4374,0.434,0.4326,0.4495,0.4496,0.4498,0.4499,0,0.3907,0.3931,0.3907,0.3943,0.3995,0.4052,0.4044,0.412,0.4155,0.4173,0.4295,0.4342,0.4453,0.4532,0.4592,0.4497,0.4601,0.4525,0.4399,0.4427,0.441,0.4396,0.4358,0.4343,0.4508,0.4508,0.4507,0,0.4021,0.406,0.4058,0.4098,0.414,0.4147,0.4248,0.4254,0.4259,0.4424,0.4437,0.4527,0.4662,0.4683,0.4705,0.4753,0.4712,0.4752,0.4735,0.475,0.4787,0.4767,0.475,0.4977,0.4978,0.4978,0,0,0.4081,0.4078,0.4159,0.4122,0.4141,0.4228,0.4248,0.4305,0.4376,0.4407,0.4501,0.4599,0.4675,0.4715,0.48,0.4807,0.4862,0.48,0.4778,0.4759,0.4763,0.4795,0.4776,0.4981,0.4981,0.4981,0,0,0.4117,0.4199,0.4236,0.4201,0.425,0.4344,0.4333,0.4392,0.4455,0.4464,0.4614,0.4647,0.4682,0.4772,0.4786,0.4825,0.4929,0.4928,0.4741,0.4716,0.4694,0.4678,0.4932,0,0,0,0,0,0.4239,0.4185,0.4218,0.4223,0.4284,0.4318,0.4331,0.4421,0.4461,0.4454,0.4547,0.4647,0.4812,0.4827,0.4853,0.481,0.5011,0.5006,0.5001,0.4765,0.4737,0.4713,0,0,0,0,0,0,0.4242,0.4246,0.422,0.4304,0.4319,0.432,0.4418,0.4441,0.4465,0.4479,0.4623,0.4652,0.4761,0.4823,0.4844,0.4801,0.4926,0.5009,0.5005,0.5,0.4755,0.4732,0.4712,0,0,0,0,0,0.4244,0.4248,0.4314,0.4307,0.432,0.4426,0.442,0.4441,0.4462,0.4614,0.4643,0.4527,0.4756,0.4783,0.4837,0.4788,0.4912,0.492,0.5006,0.5003,0.4999,0.4744,0,0,0,0,0,0,0.4246,0.4277,0.432,0.4329,0.433,0.443,0.4445,0.444,0.4599,0.4625,0.4527,0.4537,0.4753,0.4775,0.4795,0.4775,0.4901,0.4909,0.4913,0.5003,0.5001,0.4998,0,0,0,0,0,0,0.4276,0.4283,0.4324,0.4348,0.4361,0.4432,0.4445,0.4511,0.4602,0.4506,0.4517,0.453,0.4745,0.4768,0.4784,0.4882,0.4893,0.49,0.4905,0.4908,0.5001,0.4999,0,0,0,0,0,0,0.4282,0.4288,0.4347,0.4356,0.4368,0.4477,0.4497,0.4569,0.4573,0.4499,0.4581,0.4584,0.4738,0.4755,0.4776,0.4866,0.4878,0.4893,0.4898,0.4901,0.4903,0,0,0,0,0,0,0,0.4286,0.4212,0.4264,0.4363,0.4373,0.4411,0.4414,0.4417,0.4574,0.4577,0.458,0.4583,0.4852,0.486,0.4868,0.4853,0,0,0.4892,0.4896,0,0,0,0,0,0,0,0,0.4213,0.4212,0.4264,0.4266,0.4268,0.4412,0.4414,0.4416,0.4574,0.4577,0.4579,0.4582,0.4854,0.486,0.4867,0,0,0,0,0,0,0,0,0,0,0,0,0,0,0,0.4264,0.4266,0,0.4412,0.4414,0.4416,0.4574,0.4577,0.4579,0.4581,0.4856,0.4861,0.4866,0,0,0,0,0,0,0,0,0,0,0,0,0,0,0,0,0,0,0,0,0,0,0,0,0,0,0,0,0,0,0,0,0,0,0,0,0,0,0,0,0,0,0,0,0,0,0,0,0,0,0,0,0,0,0,0,0,0,0,0,0,0,0,0,0,0,0,0,0]}],[{"header":{"parameterUnit":"kt","parameterCategory":2,"dx":1,"dy":1,"la1":30.253999710083008,"la2":30.299108505249023,"lo1":-89.0895004272461,"lo2":-89.04439544677734,"nx":28,"ny":28,"refTime":"2022-10-06T21:00:00:Z","depth":"0","parameterNumber":3,"parameterNumberName":"V-component_of_CURRENTS"},"data":[0.0371,0.0352,0.035,0.0342,0.0341,0.0338,0.0343,0.0347,0.035,0.0353,0.0353,0.0406,0.0722,0.1296,0.1907,0.2142,0.2753,0.283,0.3081,0.2637,0.2604,0.2573,0.2621,0.291,0.2913,0.3795,0.3805,0.3813,0.0384,0.0372,0.0374,0.0368,0.0372,0.0376,0.0393,0.0397,0.0404,0.0417,0.0444,0.0511,0.0643,0.082,0.1045,0.1434,0.1646,0.1773,0.2126,0.2217,0.1381,0.1373,0.14,0.14,0.14,0.1399,0.1399,0.1399,0.04,0.0398,0.0387,0.0385,0.0391,0.0396,0.0404,0.0416,0.0445,0.0488,0.0539,0.0564,0.064,0.0657,0.077,0.1013,0.1136,0.1149,0.1443,0.1588,0.1724,0.071,0.0687,0.0687,0.0687,0.0687,0.0687,0,0.0392,0.0387,0.04,0.0391,0.0397,0.0413,0.0434,0.045,0.0512,0.0549,0.0598,0.0639,0.0691,0.0722,0.0749,0.0816,0.1257,0.0927,0.1267,0.1589,0.1727,0.1849,0.0943,0.0992,0.0994,0.0995,0.0996,0.0997,0.036,0.0373,0.0389,0.0391,0.0403,0.0428,0.0445,0.0497,0.0528,0.0615,0.0643,0.0727,0.0775,0.0875,0.0902,0.0959,0.1278,0.0976,0.0978,0.1228,0.1503,0.1667,0.1775,0.1016,0.1014,0.1012,0.101,0,0.0332,0.0347,0.038,0.041,0.0415,0.0441,0.0479,0.0517,0.0575,0.0639,0.0666,0.0768,0.0847,0.0943,0.1079,0.1072,0.1305,0.1123,0.1072,0.1054,0.1206,0.1454,0.1813,0.1955,0.1033,0.103,0.1027,0,0.0306,0.0335,0.0353,0.0374,0.0407,0.0445,0.0495,0.0543,0.0614,0.0663,0.0743,0.0793,0.0924,0.0996,0.1059,0.1084,0.1178,0.1096,0.1086,0.109,0.1074,0.1353,0.1603,0.1281,0.1281,0.1281,0.128,0,0.028,0.0321,0.0354,0.037,0.0423,0.0449,0.0479,0.0557,0.0596,0.0693,0.0723,0.0847,0.0891,0.0988,0.104,0.1039,0.1163,0.1172,0.1082,0.1071,0.1095,0.1079,0.1447,0.128,0.128,0.128,0.128,0,0.0274,0.0294,0.0335,0.0385,0.0398,0.0424,0.0496,0.0537,0.0629,0.066,0.0742,0.0786,0.0887,0.0877,0.1012,0.0974,0.1012,0.1049,0.1052,0.0932,0.0883,0.0909,0.0957,0.126,0.1033,0.1031,0.103,0,0.0249,0.0287,0.0309,0.0352,0.0377,0.0408,0.0452,0.0504,0.0546,0.0609,0.068,0.0746,0.0754,0.0785,0.0853,0.0913,0.0965,0.0911,0.0997,0.0999,0.0866,0.0912,0.0913,0.0937,0.101,0.1012,0.1014,0,0.0234,0.0277,0.0282,0.0303,0.0341,0.036,0.0407,0.0464,0.0503,0.0548,0.0613,0.0701,0.0722,0.0762,0.0794,0.0855,0.0925,0.0847,0.0851,0.0851,0.1039,0.0899,0.0898,0.0955,0.0958,0.0961,0.0998,0,0.0247,0.0264,0.0272,0.0305,0.0325,0.0346,0.0378,0.0406,0.0423,0.0458,0.054,0.059,0.0662,0.0682,0.0697,0.0795,0.0774,0.0785,0.0777,0.0826,0.0829,0.0842,0.0688,0.0688,0.0688,0.0688,0,0,0.0228,0.0249,0.026,0.0279,0.0298,0.031,0.0334,0.036,0.0402,0.0433,0.0421,0.0538,0.057,0.0668,0.0685,0.0692,0.071,0.0691,0.079,0.0801,0.0812,0.0819,0.0831,0.0687,0.0687,0.0687,0.0687,0,0.0236,0.024,0.0253,0.0271,0.0293,0.0312,0.0314,0.0343,0.0366,0.0405,0.044,0.0492,0.0543,0.0602,0.0634,0.0681,0.0694,0.0685,0.0715,0.0785,0.0796,0.0807,0.0815,0.0827,0.0686,0.0686,0.0686,0,0.0234,0.0246,0.0252,0.0272,0.0289,0.0312,0.0315,0.0333,0.036,0.0381,0.0427,0.0461,0.0511,0.0567,0.0591,0.0583,0.0675,0.0638,0.064,0.0655,0.0728,0.0741,0.0752,0.0609,0.0609,0.0608,0,0,0.0239,0.0249,0.0269,0.0274,0.0282,0.0306,0.0318,0.0333,0.0363,0.0378,0.0409,0.0449,0.0498,0.052,0.0561,0.0601,0.0624,0.0628,0.0632,0.0635,0.0651,0.0724,0.0736,0.0607,0.0607,0.0607,0,0,0.0243,0.0264,0.0269,0.0275,0.0295,0.0325,0.0336,0.0346,0.038,0.0384,0.0417,0.0429,0.0479,0.0495,0.0475,0.0563,0.0549,0.0554,0.0553,0.0558,0.0562,0.0573,0.049,0,0,0,0,0,0.0258,0.026,0.0263,0.0266,0.0295,0.0319,0.0326,0.035,0.035,0.0362,0.0396,0.0406,0.05,0.0483,0.0492,0.0522,0.0591,0.0594,0.0596,0.0606,0.0611,0.0615,0,0,0,0,0,0,0.026,0.0263,0.0263,0.0289,0.0296,0.0319,0.033,0.0337,0.035,0.0353,0.0399,0.0407,0.0435,0.048,0.0487,0.0516,0.0487,0.0592,0.0595,0.0597,0.0608,0.0612,0.0615,0,0,0,0,0,0.0261,0.0263,0.0299,0.029,0.0296,0.0327,0.033,0.0337,0.0351,0.0391,0.0399,0.0367,0.0434,0.0443,0.0484,0.0512,0.0482,0.0485,0.0594,0.0596,0.0597,0.061,0,0,0,0,0,0,0.0262,0.0278,0.0301,0.0304,0.0289,0.0327,0.0333,0.0336,0.0388,0.0396,0.036,0.0362,0.0434,0.0441,0.0448,0.0511,0.0478,0.048,0.0482,0.0595,0.0597,0.0598,0,0,0,0,0,0,0.0277,0.028,0.0303,0.03,0.0304,0.0327,0.0332,0.0361,0.0389,0.0356,0.0359,0.036,0.0425,0.0439,0.0445,0.0489,0.0474,0.0477,0.0479,0.048,0.0596,0.0597,0,0,0,0,0,0,0.0279,0.0282,0.03,0.0302,0.0305,0.0347,0.0354,0.0385,0.0378,0.0354,0.0378,0.0379,0.0423,0.0429,0.0442,0.0484,0.0488,0.0474,0.0476,0.0478,0.0478,0,0,0,0,0,0,0,0.0281,0.0249,0.0278,0.0304,0.0307,0.0334,0.0335,0.0336,0.0378,0.0378,0.0378,0.0378,0.0459,0.0462,0.0465,0.048,0,0,0.0474,0.0475,0,0,0,0,0,0,0,0,0.0248,0.0248,0.0278,0.0278,0.0279,0.0334,0.0335,0.0336,0.0378,0.0378,0.0378,0.0378,0.0459,0.0462,0.0464,0,0,0,0,0,0,0,0,0,0,0,0,0,0,0,0.0278,0.0278,0,0.0334,0.0335,0.0336,0.0378,0.0378,0.0378,0.0378,0.046,0.0462,0.0464,0,0,0,0,0,0,0,0,0,0,0,0,0,0,0,0,0,0,0,0,0,0,0,0,0,0,0,0,0,0,0,0,0,0,0,0,0,0,0,0,0,0,0,0,0,0,0,0,0,0,0,0,0,0,0,0,0,0,0,0,0,0,0,0,0,0,0,0,0]}]],[[{"header":{"parameterUnit":"kt","parameterCategory":2,"dx":1,"dy":1,"la1":30.253999710083008,"la2":30.299108505249023,"lo1":-89.0895004272461,"lo2":-89.04439544677734,"nx":28,"ny":28,"refTime":"2022-10-06T21:00:00:Z","depth":"2","parameterNumber":2,"parameterNumberName":"U-component_of_CURRENTS"},"data":[-0.1311,-0.1275,-0.1274,-0.1238,-0.1233,-0.1205,-0.1218,-0.1369,-0.1446,-0.15,-0.1409,-0.1688,-0.1544,-0.1198,-0.115,-0.0942,-0.1,-0.0873,-0.1268,-0.1241,-0.1267,-0.1251,-0.1257,0,0,0,0,0,-0.1365,-0.1357,-0.1339,-0.1332,-0.1323,-0.1339,-0.1372,-0.1419,-0.1539,-0.1662,-0.1857,-0.1605,-0.1638,-0.1512,-0.1195,-0.1187,-0.1151,-0.1071,-0.1017,-0.1045,-0.107,-0.1054,-0.0796,-0.0795,-0.0794,-0.0793,0,0,-0.146,-0.1442,-0.1448,-0.1426,-0.1428,-0.1438,-0.1411,-0.1491,-0.1557,-0.1675,-0.1861,-0.1922,-0.1905,-0.1721,-0.1671,-0.1448,-0.1573,-0.1419,-0.1427,-0.1439,-0.1442,-0.1419,-0.1288,-0.129,-0.1292,-0.1294,-0.1295,0,-0.1553,-0.1542,-0.1556,-0.1545,-0.1518,-0.1523,-0.1506,-0.1515,-0.1553,-0.1612,-0.1779,-0.1907,-0.1941,-0.1909,-0.1807,-0.1776,-0.1619,-0.1572,-0.1824,-0.1526,-0.1498,-0.1507,-0.1526,-0.1386,-0.1389,-0.1391,-0.1393,-0.1394,-0.1645,-0.1634,-0.1666,-0.166,-0.1655,-0.1611,-0.1591,-0.1595,-0.1602,-0.1664,-0.1687,-0.1719,-0.1865,-0.1905,-0.1859,-0.1841,-0.1897,-0.1635,-0.1656,-0.1881,-0.1889,-0.1897,-0.1904,-0.1425,-0.1421,-0.1418,-0.1415,0,-0.1695,-0.1747,-0.1749,-0.1784,-0.178,-0.1731,-0.1715,-0.1684,-0.1664,-0.166,-0.1634,-0.1726,-0.1778,-0.1805,-0.1852,-0.1861,-0.1892,-0.1899,-0.1722,-0.1703,-0.1906,-0.1912,-0.1833,-0.1831,-0.1831,-0.183,-0.1829,0,-0.1808,-0.1799,-0.1863,-0.1864,-0.1826,-0.1872,-0.18,-0.1803,-0.179,-0.1789,-0.1791,-0.1826,-0.184,-0.1872,-0.1912,-0.1934,-0.1932,-0.1975,-0.1974,-0.1836,-0.1824,-0.2085,-0.2096,-0.1998,-0.1998,-0.1999,-0.2,0,-0.1864,-0.1926,-0.1921,-0.1947,-0.2018,-0.1973,-0.1979,-0.1989,-0.1979,-0.1935,-0.1903,-0.1905,-0.1884,-0.1901,-0.1966,-0.1973,-0.1986,-0.2012,-0.2001,-0.1999,-0.1887,-0.1878,-0.2001,-0.2001,-0.2001,-0.2001,-0.2002,0,-0.1958,-0.1991,-0.2008,-0.2046,-0.2044,-0.2065,-0.2041,-0.2073,-0.2081,-0.2053,-0.2024,-0.2033,-0.2031,-0.2056,-0.2069,-0.2069,-0.2064,-0.2093,-0.209,-0.213,-0.2154,-0.1898,-0.179,-0.2054,-0.2055,-0.2056,-0.2057,0,-0.2003,-0.2037,-0.207,-0.2102,-0.2124,-0.216,-0.2187,-0.2215,-0.221,-0.2185,-0.2198,-0.2175,-0.2211,-0.2148,-0.2158,-0.2189,-0.2157,-0.2196,-0.2176,-0.2176,-0.2142,-0.2078,-0.1912,-0.1812,-0.2067,-0.2066,-0.2065,0,-0.2031,-0.2093,-0.2083,-0.2092,-0.2161,-0.2191,-0.2221,-0.2257,-0.2215,-0.2244,-0.219,-0.226,-0.2207,-0.2242,-0.2252,-0.2251,-0.2176,-0.2245,-0.2248,-0.2173,-0.2104,-0.2093,-0.2085,-0.2172,-0.2171,-0.2171,-0.2074,0,-0.2129,-0.2125,-0.2117,-0.2149,-0.2187,-0.22,-0.2266,-0.2263,-0.2226,-0.2249,-0.2232,-0.2284,-0.2287,-0.2303,-0.2335,-0.2312,-0.2292,-0.2331,-0.2335,-0.2306,-0.2269,-0.2262,-0.238,-0.2382,-0.2384,-0.2385,0,0,-0.2139,-0.2129,-0.214,-0.2162,-0.2178,-0.2208,-0.2225,-0.2261,-0.2299,-0.2274,-0.2251,-0.2297,-0.2344,-0.2374,-0.2359,-0.2405,-0.2375,-0.2363,-0.2335,-0.2329,-0.2324,-0.2286,-0.2277,-0.2388,-0.2389,-0.239,-0.239,0,-0.217,-0.2141,-0.2123,-0.2172,-0.2193,-0.2235,-0.2224,-0.2255,-0.2232,-0.2274,-0.2265,-0.2265,-0.2346,-0.2375,-0.2406,-0.2423,-0.2406,-0.2416,-0.2356,-0.235,-0.2342,-0.2335,-0.2295,-0.2286,-0.2395,-0.2394,-0.2394,0,-0.2197,-0.2199,-0.2185,-0.2225,-0.2234,-0.2283,-0.2254,-0.2251,-0.2274,-0.2289,-0.228,-0.2299,-0.2371,-0.2404,-0.2416,-0.2421,-0.2426,-0.2453,-0.2446,-0.2458,-0.2456,-0.2447,-0.2439,-0.2534,-0.2534,-0.2534,0,0,-0.2217,-0.2191,-0.2252,-0.2237,-0.2246,-0.2267,-0.2275,-0.2265,-0.2285,-0.2271,-0.2288,-0.2307,-0.2357,-0.2363,-0.2429,-0.2472,-0.2484,-0.2462,-0.2456,-0.245,-0.2458,-0.2455,-0.2447,-0.2533,-0.2533,-0.2533,0,0,-0.2232,-0.2248,-0.2238,-0.2223,-0.2277,-0.2329,-0.2307,-0.2297,-0.2298,-0.224,-0.228,-0.2289,-0.2312,-0.2361,-0.2344,-0.2396,-0.2433,-0.2439,-0.2331,-0.2324,-0.2318,-0.2306,-0.2352,0,0,0,0,0,-0.2276,-0.2258,-0.225,-0.2251,-0.2274,-0.2348,-0.2354,-0.2323,-0.2243,-0.225,-0.2244,-0.2247,-0.2356,-0.2342,-0.2363,-0.233,-0.2522,-0.2524,-0.2526,-0.24,-0.2392,-0.2386,0,0,0,0,0,0,-0.2278,-0.228,-0.2252,-0.23,-0.2306,-0.2346,-0.2284,-0.2277,-0.2242,-0.2228,-0.2248,-0.2251,-0.2288,-0.2334,-0.2352,-0.2318,-0.2346,-0.2522,-0.2524,-0.2526,-0.2398,-0.2391,-0.2385,0,0,0,0,0,-0.2279,-0.2281,-0.2304,-0.2301,-0.2306,-0.2286,-0.2279,-0.2273,-0.2223,-0.2291,-0.2287,-0.2187,-0.2291,-0.2303,-0.2345,-0.2308,-0.2333,-0.234,-0.2524,-0.2525,-0.2526,-0.2394,0,0,0,0,0,0,-0.228,-0.2286,-0.2306,-0.231,-0.2255,-0.2281,-0.2277,-0.2269,-0.2286,-0.2284,-0.224,-0.223,-0.2294,-0.2303,-0.2314,-0.23,-0.2323,-0.233,-0.2334,-0.2525,-0.2526,-0.2527,0,0,0,0,0,0,-0.2286,-0.2288,-0.2308,-0.2251,-0.2247,-0.2277,-0.2273,-0.2358,-0.2287,-0.2234,-0.2226,-0.2236,-0.2283,-0.2304,-0.2312,-0.2447,-0.2316,-0.2322,-0.2327,-0.233,-0.2525,-0.2526,0,0,0,0,0,0,-0.2288,-0.229,-0.2249,-0.2247,-0.2243,-0.2275,-0.2354,-0.2375,-0.2234,-0.2234,-0.2221,-0.2215,-0.2286,-0.2292,-0.2311,-0.2443,-0.2446,-0.2316,-0.232,-0.2324,-0.2326,0,0,0,0,0,0,0,-0.2289,-0.2264,-0.2289,-0.2243,-0.224,-0.234,-0.234,-0.2341,-0.2233,-0.2228,-0.2222,-0.2218,-0.2279,-0.2286,-0.2293,-0.244,0,0,-0.2315,-0.2319,0,0,0,0,0,0,0,0,-0.2264,-0.2264,-0.2289,-0.229,-0.2291,-0.234,-0.234,-0.2341,-0.2232,-0.2228,-0.2224,-0.222,-0.2281,-0.2287,-0.2293,0,0,0,0,0,0,0,0,0,0,0,0,0,0,0,-0.229,-0.229,0,-0.234,-0.234,-0.2341,-0.2231,-0.2228,-0.2224,-0.2221,-0.2283,-0.2287,-0.2292,0,0,0,0,0,0,0,0,0,0,0,0,0,0,0,0,0,0,0,0,0,0,0,0,0,0,0,0,0,0,0,0,0,0,0,0,0,0,0,0,0,0,0,0,0,0,0,0,0,0,0,0,0,0,0,0,0,0,0,0,0,0,0,0,0,0,0,0,0]}],[{"header":{"parameterUnit":"kt","parameterCategory":2,"dx":1,"dy":1,"la1":30.253999710083008,"la2":30.299108505249023,"lo1":-89.0895004272461,"lo2":-89.04439544677734,"nx":28,"ny":28,"refTime":"2022-10-06T21:00:00:Z","depth":"2","parameterNumber":3,"parameterNumberName":"V-component_of_CURRENTS"},"data":[-0.0206,-0.0225,-0.0227,-0.0256,-0.0251,-0.029,-0.0326,-0.0382,-0.0343,-0.0349,-0.027,-0.0026,0.0208,0.0407,0.069,0.0916,0.0851,0.0941,0.0944,0.0658,0.0638,0.0717,0.0618,0,0,0,0,0,-0.0197,-0.0191,-0.019,-0.0203,-0.0216,-0.0188,-0.0228,-0.0267,-0.0353,-0.0231,-0.0171,-0.0091,0.0229,0.0466,0.1006,0.1264,0.1228,0.1093,0.0888,0.0868,0.085,0.08,0.1051,0.1052,0.1052,0.1053,0,0,-0.0169,-0.017,-0.0177,-0.0181,-0.017,-0.0188,-0.0207,-0.0218,-0.0251,-0.0229,-0.0166,-0.0069,0.0131,0.0651,0.0884,0.1128,0.1111,0.0902,0.0885,0.0868,0.0829,0.0842,0.1082,0.1082,0.1083,0.1083,0.1084,0,-0.0162,-0.0158,-0.0166,-0.0169,-0.0165,-0.0153,-0.0148,-0.0155,-0.014,-0.0147,-0.0141,-0.0071,0.0306,0.0488,0.0829,0.0901,0.067,0.0774,0.0683,0.0445,0.0448,0.0445,0.0422,0.0617,0.0615,0.0614,0.0612,0.0612,-0.0129,-0.0148,-0.0153,-0.0153,-0.0159,-0.015,-0.0148,-0.0125,-0.0124,-0.0084,-0.009,0.0023,0.0071,0.0313,0.0536,0.0744,0.0518,0.0712,0.0594,0.0489,0.0493,0.0469,0.0447,0.0589,0.0592,0.0594,0.0596,0,-0.0103,-0.012,-0.0145,-0.016,-0.0159,-0.0159,-0.014,-0.0136,-0.0117,-0.0111,-0.01,-0.0089,0.0,0.0062,0.0154,0.0217,0.0331,0.0409,0.0353,0.0375,0.0424,0.0408,0.0654,0.066,0.0666,0.0671,0.0674,0,-0.0073,-0.0098,-0.011,-0.0135,-0.0143,-0.0162,-0.0162,-0.0174,-0.0166,-0.0168,-0.0175,-0.0167,-0.0161,-0.009,-0.0065,0.0097,0.005,0.0157,0.0189,0.011,0.0115,-0.0054,-0.0065,0.0025,0.0023,0.0022,0.002,0,-0.0024,-0.0077,-0.0109,-0.0128,-0.0168,-0.0176,-0.0189,-0.0217,-0.0217,-0.0221,-0.021,-0.022,-0.0201,-0.0164,-0.0125,-0.0185,-0.0018,-0.009,0.0103,0.0114,0.0112,0.012,0.0018,0.0018,0.0017,0.0017,0.0016,0,-0.0007,-0.0037,-0.0093,-0.0114,-0.0131,-0.0163,-0.0192,-0.0224,-0.0252,-0.0267,-0.0285,-0.0303,-0.0298,-0.0327,-0.026,-0.0321,-0.0263,-0.0241,-0.0233,-0.0092,-0.0102,0.004,0.0124,-0.0129,-0.0131,-0.0133,-0.0135,0,0.0053,-0.0015,-0.0036,-0.0095,-0.0134,-0.0164,-0.0199,-0.0243,-0.0275,-0.03,-0.0328,-0.0354,-0.0402,-0.0407,-0.0401,-0.0392,-0.0333,-0.0423,-0.0268,-0.0261,-0.0132,-0.0058,-0.0115,0.0086,-0.0161,-0.0158,-0.0156,0,0.0092,0.0036,0.0023,0.0004,-0.0075,-0.011,-0.0163,-0.0219,-0.023,-0.0306,-0.0319,-0.0401,-0.0404,-0.0428,-0.0462,-0.0442,-0.0369,-0.045,-0.0447,-0.034,-0.0238,-0.0109,-0.0079,-0.0401,-0.0399,-0.0397,-0.0177,0,0.012,0.0085,0.0059,-0.001,-0.0048,-0.0097,-0.0152,-0.0193,-0.0233,-0.0272,-0.0324,-0.0379,-0.0422,-0.0452,-0.0487,-0.0478,-0.0452,-0.048,-0.0454,-0.0456,-0.0359,-0.0343,-0.0529,-0.0529,-0.0529,-0.0529,0,0,0.017,0.0124,0.009,0.0042,0.0008,-0.0042,-0.0089,-0.0134,-0.0231,-0.0249,-0.0274,-0.0372,-0.0413,-0.0455,-0.0481,-0.0508,-0.0465,-0.0497,-0.0473,-0.0467,-0.0461,-0.0369,-0.0354,-0.0528,-0.0528,-0.0528,-0.0528,0,0.0172,0.0148,0.0112,0.007,0.0001,-0.0041,-0.0056,-0.0139,-0.0174,-0.0248,-0.0288,-0.0329,-0.0416,-0.0443,-0.0467,-0.0506,-0.0462,-0.0527,-0.0513,-0.0473,-0.0467,-0.0462,-0.0371,-0.0357,-0.0528,-0.0528,-0.0528,0,0.0193,0.0153,0.0136,0.0066,0.0018,-0.0035,-0.0058,-0.0118,-0.016,-0.0204,-0.0283,-0.0324,-0.037,-0.0428,-0.0453,-0.0446,-0.0443,-0.0488,-0.049,-0.0465,-0.0421,-0.0416,-0.0411,-0.0464,-0.0464,-0.0464,0,0,0.019,0.0161,0.0095,0.006,0.0034,-0.0033,-0.0069,-0.011,-0.0175,-0.0206,-0.0259,-0.0309,-0.0355,-0.0383,-0.0427,-0.047,-0.0422,-0.048,-0.0483,-0.0485,-0.0462,-0.0419,-0.0415,-0.0463,-0.0463,-0.0463,0,0,0.0182,0.0117,0.0103,0.006,0.0004,-0.0077,-0.0111,-0.0142,-0.0209,-0.0218,-0.0265,-0.0281,-0.0341,-0.0357,-0.0342,-0.0414,-0.0402,-0.0406,-0.0404,-0.0408,-0.0411,-0.0373,-0.0344,0,0,0,0,0,0.0153,0.013,0.0119,0.0104,0.0009,-0.0061,-0.0077,-0.014,-0.0153,-0.0179,-0.0238,-0.024,-0.0365,-0.0352,-0.0362,-0.0373,-0.0449,-0.0452,-0.0454,-0.0461,-0.0465,-0.0468,0,0,0,0,0,0,0.0147,0.013,0.0119,0.0044,0.0021,-0.006,-0.0086,-0.0104,-0.0152,-0.016,-0.0231,-0.0241,-0.0274,-0.0348,-0.0357,-0.0367,-0.0341,-0.045,-0.0452,-0.0454,-0.0462,-0.0466,-0.0468,0,0,0,0,0,0.0141,0.0128,-0.0004,0.0042,0.0023,-0.0064,-0.0086,-0.0101,-0.0144,-0.0202,-0.0216,-0.0192,-0.0272,-0.0284,-0.0353,-0.0362,-0.0335,-0.0338,-0.0452,-0.0453,-0.0455,-0.0464,0,0,0,0,0,0,0.0137,0.011,-0.001,-0.0019,0.0041,-0.0063,-0.0079,-0.0099,-0.0184,-0.0199,-0.0163,-0.0168,-0.0271,-0.0281,-0.0289,-0.036,-0.033,-0.0333,-0.0335,-0.0453,-0.0454,-0.0455,0,0,0,0,0,0,0.0117,0.0104,-0.0014,-0.0013,-0.0022,-0.0061,-0.0075,-0.0107,-0.0183,-0.014,-0.0147,-0.0164,-0.0251,-0.0278,-0.0285,-0.0334,-0.0326,-0.0329,-0.0331,-0.0333,-0.0454,-0.0455,0,0,0,0,0,0,0.011,0.0098,-0.0011,-0.0018,-0.0026,-0.0134,-0.009,-0.0178,-0.0199,-0.0134,-0.0201,-0.0201,-0.0247,-0.0255,-0.0282,-0.0327,-0.0332,-0.0326,-0.0328,-0.033,-0.0331,0,0,0,0,0,0,0,0.0104,0.0202,0.0045,-0.0022,-0.003,-0.0104,-0.0106,-0.0109,-0.0199,-0.02,-0.02,-0.0201,-0.0307,-0.0311,-0.0315,-0.0322,0,0,-0.0326,-0.0327,0,0,0,0,0,0,0,0,0.0204,0.0202,0.0044,0.0042,0.004,-0.0104,-0.0106,-0.0108,-0.0199,-0.02,-0.02,-0.0201,-0.0308,-0.0311,-0.0314,0,0,0,0,0,0,0,0,0,0,0,0,0,0,0,0.0044,0.0042,0,-0.0105,-0.0106,-0.0108,-0.0199,-0.02,-0.02,-0.0201,-0.0309,-0.0311,-0.0314,0,0,0,0,0,0,0,0,0,0,0,0,0,0,0,0,0,0,0,0,0,0,0,0,0,0,0,0,0,0,0,0,0,0,0,0,0,0,0,0,0,0,0,0,0,0,0,0,0,0,0,0,0,0,0,0,0,0,0,0,0,0,0,0,0,0,0,0,0]}]],[[{"header":{"parameterUnit":"kt","parameterCategory":2,"dx":1,"dy":1,"la1":30.253999710083008,"la2":30.299108505249023,"lo1":-89.0895004272461,"lo2":-89.04439544677734,"nx":28,"ny":28,"refTime":"2022-10-06T21:00:00:Z","depth":"4","parameterNumber":2,"parameterNumberName":"U-component_of_CURRENTS"},"data":[-0.1064,-0.113,-0.1155,-0.1015,-0.0996,-0.0979,-0.1065,-0.1197,-0.1107,-0.1269,-0.122,-0.1382,-0.1346,-0.1388,-0.1338,-0.1373,-0.176,-0.1652,-0.165,-0.2412,-0.2461,-0.2505,-0.243,0,0,0,0,0,-0.1139,-0.1152,-0.1224,-0.1281,-0.1327,-0.1356,-0.1485,-0.1619,-0.1754,-0.1537,-0.1678,-0.1503,-0.1456,-0.1437,-0.1415,-0.1611,-0.2028,-0.1588,-0.2233,-0.2442,-0.2497,-0.2406,0,0,0,0,0,0,-0.1207,-0.1263,-0.1388,-0.1504,-0.1575,-0.1549,-0.1687,-0.1674,-0.1752,-0.1978,-0.173,-0.1807,-0.2023,-0.2,-0.1912,-0.2019,-0.1967,-0.2104,-0.2173,-0.2227,-0.2094,-0.1795,-0.1357,0,0,0,0,0,-0.127,-0.1393,-0.1516,-0.1631,-0.1756,-0.1847,-0.1969,-0.2005,-0.2181,-0.2446,-0.223,-0.2285,-0.2271,-0.2389,-0.2516,-0.2387,-0.3137,-0.2883,-0.2911,-0.294,-0.2772,-0.271,-0.2727,-0.2703,-0.271,-0.2714,-0.2717,0,-0.1359,-0.1417,-0.1688,-0.1763,-0.19,-0.2078,-0.2141,-0.2403,-0.2453,-0.2617,-0.262,-0.2866,-0.2946,-0.2839,-0.3068,-0.303,-0.2945,-0.3025,-0.3057,-0.2859,-0.2783,-0.2787,-0.2788,-0.276,-0.2757,-0.2753,-0.275,0,-0.141,-0.1536,-0.1707,-0.1952,-0.2009,-0.2136,-0.2392,-0.2472,-0.2719,-0.2824,-0.2984,-0.3283,-0.3314,-0.3609,-0.376,-0.3669,-0.3557,-0.3354,-0.3706,-0.3642,-0.2876,-0.2859,-0.2832,-0.2816,-0.2803,-0.2792,-0.2782,0,-0.1525,-0.163,-0.1847,-0.1917,-0.2049,-0.2246,-0.2392,-0.2526,-0.2758,-0.281,-0.3182,-0.3176,-0.3716,-0.384,-0.3799,-0.3613,-0.3907,-0.34,-0.3316,-0.3749,-0.3729,-0.3705,-0.3678,-0.3948,-0.3949,-0.395,-0.395,0,-0.156,-0.177,-0.187,-0.1947,-0.2164,-0.2279,-0.2404,-0.2568,-0.2671,-0.2966,-0.3102,-0.335,-0.3587,-0.366,-0.3738,-0.3748,-0.3901,-0.3893,-0.3373,-0.3333,-0.3699,-0.3671,-0.3951,-0.3952,-0.3952,-0.3952,-0.3952,0,-0.1668,-0.1758,-0.1884,-0.2095,-0.2144,-0.2253,-0.2425,-0.2527,-0.2736,-0.2822,-0.3003,-0.3144,-0.3428,-0.3384,-0.3604,-0.3583,-0.3554,-0.3597,-0.3594,-0.3143,-0.2958,-0.3183,-0.3406,-0.3404,-0.3401,-0.3398,-0.3396,0,-0.1661,-0.1783,-0.1889,-0.2043,-0.2118,-0.2248,-0.2338,-0.2466,-0.2561,-0.2723,-0.2863,-0.3029,-0.3004,-0.3125,-0.3251,-0.3398,-0.3435,-0.3373,-0.3373,-0.3369,-0.2944,-0.3061,-0.3468,-0.336,-0.3364,-0.3368,-0.337,0,-0.1636,-0.1825,-0.1844,-0.1929,-0.2073,-0.2141,-0.2259,-0.238,-0.2456,-0.2592,-0.274,-0.2875,-0.2942,-0.2978,-0.3023,-0.3169,-0.3354,-0.3168,-0.317,-0.3099,-0.3518,-0.3064,-0.304,-0.3432,-0.3439,-0.3445,-0.3345,0,-0.169,-0.1777,-0.1828,-0.1938,-0.2014,-0.2098,-0.2183,-0.2271,-0.2338,-0.2399,-0.2556,-0.2622,-0.2724,-0.2764,-0.2783,-0.2997,-0.2912,-0.2917,-0.2853,-0.3022,-0.2936,-0.2957,-0.2666,-0.2663,-0.266,-0.2658,0,0,-0.1632,-0.171,-0.1777,-0.1852,-0.1919,-0.1981,-0.205,-0.2109,-0.2214,-0.2275,-0.2275,-0.2435,-0.2466,-0.2595,-0.2681,-0.2662,-0.267,-0.2669,-0.2918,-0.2947,-0.2973,-0.2905,-0.2928,-0.2653,-0.2652,-0.2651,-0.2651,0,-0.1628,-0.1694,-0.1749,-0.1817,-0.1916,-0.1947,-0.1986,-0.207,-0.2122,-0.2217,-0.2231,-0.2335,-0.2384,-0.2442,-0.2463,-0.2614,-0.2564,-0.2622,-0.277,-0.289,-0.2922,-0.2951,-0.289,-0.2913,-0.2644,-0.2644,-0.2645,0,-0.1592,-0.1649,-0.1684,-0.1773,-0.1828,-0.189,-0.1892,-0.1978,-0.2038,-0.2017,-0.213,-0.2163,-0.2177,-0.2275,-0.232,-0.2282,-0.2468,-0.2398,-0.2413,-0.2442,-0.2561,-0.2598,-0.2631,-0.221,-0.2209,-0.2208,0,0,-0.1585,-0.1648,-0.171,-0.1771,-0.1809,-0.1864,-0.1905,-0.1938,-0.1992,-0.2022,-0.2057,-0.2097,-0.214,-0.2179,-0.2203,-0.2287,-0.2278,-0.2349,-0.2369,-0.2386,-0.2424,-0.2548,-0.2583,-0.2203,-0.2203,-0.2203,0,0,-0.1576,-0.1655,-0.1676,-0.1739,-0.1804,-0.1851,-0.1904,-0.1927,-0.1988,-0.2007,-0.2,-0.2008,-0.2107,-0.2093,-0.2039,-0.2196,-0.2108,-0.2119,-0.2217,-0.2242,-0.2262,-0.2302,-0.1974,0,0,0,0,0,-0.1602,-0.1644,-0.1662,-0.168,-0.1766,-0.1838,-0.185,-0.1895,-0.191,-0.1951,-0.199,-0.1954,-0.2074,-0.2025,-0.2028,-0.2113,-0.2148,-0.2158,-0.2167,-0.2311,-0.2338,-0.236,0,0,0,0,0,0,-0.161,-0.1629,-0.1661,-0.1707,-0.1728,-0.1835,-0.1822,-0.1834,-0.1907,-0.1913,-0.1949,-0.1953,-0.1937,-0.202,-0.2024,-0.2106,-0.1973,-0.2151,-0.216,-0.2167,-0.232,-0.2342,-0.2361,0,0,0,0,0,-0.1616,-0.1632,-0.1762,-0.1707,-0.1725,-0.1794,-0.1822,-0.1833,-0.1894,-0.1898,-0.1905,-0.1937,-0.1935,-0.1941,-0.2022,-0.2106,-0.197,-0.1972,-0.2157,-0.2164,-0.2169,-0.2331,0,0,0,0,0,0,-0.162,-0.1626,-0.1766,-0.1773,-0.1713,-0.1791,-0.1805,-0.1831,-0.1875,-0.1885,-0.1879,-0.1882,-0.1934,-0.1939,-0.1943,-0.211,-0.1968,-0.197,-0.197,-0.2162,-0.2167,-0.2172,0,0,0,0,0,0,-0.1618,-0.1631,-0.1769,-0.1775,-0.1783,-0.1788,-0.18,-0.1813,-0.1874,-0.1851,-0.1857,-0.188,-0.1929,-0.1938,-0.1941,-0.1959,-0.1966,-0.1968,-0.1969,-0.1969,-0.2166,-0.217,0,0,0,0,0,0,-0.1624,-0.1635,-0.1773,-0.1779,-0.1786,-0.1862,-0.1798,-0.188,-0.1895,-0.1847,-0.1897,-0.1898,-0.1926,-0.1931,-0.1939,-0.1955,-0.1958,-0.1966,-0.1967,-0.1968,-0.1969,0,0,0,0,0,0,0,-0.1629,-0.1547,-0.1734,-0.1782,-0.1788,-0.1841,-0.1842,-0.1843,-0.1895,-0.1896,-0.1897,-0.1898,-0.1958,-0.196,-0.1961,-0.1952,0,0,-0.1966,-0.1967,0,0,0,0,0,0,0,0,-0.1543,-0.1546,-0.1734,-0.1736,-0.1738,-0.1841,-0.1842,-0.1843,-0.1895,-0.1896,-0.1897,-0.1897,-0.1959,-0.196,-0.1961,0,0,0,0,0,0,0,0,0,0,0,0,0,0,0,-0.1734,-0.1736,0,-0.1841,-0.1842,-0.1842,-0.1895,-0.1896,-0.1897,-0.1897,-0.1959,-0.196,-0.1961,0,0,0,0,0,0,0,0,0,0,0,0,0,0,0,0,0,0,0,0,0,0,0,0,0,0,0,0,0,0,0,0,0,0,0,0,0,0,0,0,0,0,0,0,0,0,0,0,0,0,0,0,0,0,0,0,0,0,0,0,0,0,0,0,0,0,0,0,0]}],[{"header":{"parameterUnit":"kt","parameterCategory":2,"dx":1,"dy":1,"la1":30.253999710083008,"la2":30.299108505249023,"lo1":-89.0895004272461,"lo2":-89.04439544677734,"nx":28,"ny":28,"refTime":"2022-10-06T21:00:00:Z","depth":"4","parameterNumber":3,"parameterNumberName":"V-component_of_CURRENTS"},"data":[-0.0547,-0.065,-0.0683,-0.0857,-0.0956,-0.1123,-0.1209,-0.1265,-0.1208,-0.1241,-0.1069,-0.1023,-0.0723,-0.0969,-0.0451,-0.0395,0.0182,-0.0071,-0.0063,0.09,0.0937,0.097,0.0649,0,0,0,0,0,-0.0509,-0.0565,-0.0698,-0.0834,-0.0997,-0.1071,-0.1217,-0.126,-0.1321,-0.1296,-0.1277,-0.1144,-0.0843,-0.0738,-0.0477,-0.0509,0.021,-0.0194,0.0627,0.0923,0.0964,0.0638,0,0,0,0,0,0,-0.0457,-0.0529,-0.0619,-0.0751,-0.0915,-0.1047,-0.1114,-0.117,-0.1232,-0.1291,-0.1297,-0.1167,-0.0963,-0.0606,-0.0293,0.0028,0.019,0.0528,0.0587,0.0629,0.0307,-0.0004,-0.0119,0,0,0,0,0,-0.0403,-0.0435,-0.0517,-0.0674,-0.0791,-0.0936,-0.1046,-0.1113,-0.1187,-0.1249,-0.124,-0.1081,-0.0869,-0.0364,-0.004,0.0387,0.1029,0.0999,0.1029,0.1129,0.0959,0.1009,0.1009,0.1118,0.1124,0.1127,0.1129,0,-0.0317,-0.0367,-0.0496,-0.0582,-0.0628,-0.0752,-0.085,-0.0911,-0.0991,-0.1105,-0.1135,-0.0978,-0.0844,-0.0222,0.0221,0.0793,0.0836,0.11,0.1203,0.1021,0.1065,0.1054,0.1042,0.1162,0.1159,0.1156,0.1154,0,-0.027,-0.03,-0.0411,-0.0503,-0.0541,-0.0629,-0.0757,-0.0854,-0.0885,-0.098,-0.0957,-0.0782,-0.0462,-0.002,0.0633,0.0885,0.1244,0.1246,0.1362,0.1424,0.1116,0.1089,0.1216,0.1204,0.1193,0.1185,0.1178,0,-0.0206,-0.0278,-0.0335,-0.0379,-0.0509,-0.0519,-0.0651,-0.0672,-0.0718,-0.0791,-0.0643,-0.066,-0.0011,0.0275,0.0682,0.1,0.1236,0.1208,0.1261,0.1498,0.1474,0.1568,0.1548,0.1712,0.171,0.1708,0.1706,0,-0.0132,-0.0211,-0.0295,-0.0314,-0.0385,-0.0435,-0.047,-0.0503,-0.0555,-0.0516,-0.0545,-0.0264,-0.009,0.0311,0.0733,0.08,0.1269,0.1415,0.1248,0.1224,0.1548,0.1532,0.1703,0.1703,0.1702,0.1701,0.1701,0,-0.0062,-0.0108,-0.0199,-0.028,-0.0297,-0.0336,-0.0416,-0.0437,-0.0418,-0.0393,-0.0314,-0.0203,0.0047,0.0167,0.0696,0.0612,0.0869,0.1097,0.1115,0.0786,0.0813,0.1231,0.1307,0.1303,0.1299,0.1295,0.1292,0,0.0008,-0.0067,-0.0061,-0.014,-0.018,-0.0147,-0.0193,-0.0184,-0.0162,-0.0163,-0.0022,0.0012,0.017,0.0215,0.0415,0.0727,0.0866,0.07,0.115,0.1161,0.0812,0.08,0.0949,0.1237,0.1244,0.1249,0.1252,0,0.0073,0.005,0.0045,0.001,0.0025,0.0014,-0.0011,-0.0015,-0.0056,0.0054,0.0028,0.0158,0.0244,0.0281,0.0382,0.0562,0.0785,0.0712,0.0724,0.0829,0.1185,0.0784,0.0779,0.0923,0.0928,0.0932,0.1214,0,0.0129,0.0106,0.0095,0.0082,0.0085,0.0078,0.0113,0.0123,0.0169,0.0206,0.0243,0.0353,0.0405,0.0443,0.0517,0.0619,0.0677,0.0741,0.0797,0.0809,0.0924,0.0954,0.0626,0.0627,0.0628,0.0629,0,0,0.0194,0.0163,0.0209,0.019,0.0187,0.0266,0.0233,0.0264,0.0328,0.0333,0.0389,0.0472,0.0544,0.0559,0.0574,0.0602,0.0726,0.0615,0.0772,0.0786,0.0801,0.0912,0.0939,0.0631,0.0632,0.0632,0.0633,0,0.0214,0.0233,0.0208,0.0225,0.0262,0.0289,0.0293,0.0348,0.0374,0.0399,0.0463,0.0521,0.0574,0.0617,0.0642,0.0619,0.0745,0.0631,0.0589,0.0776,0.0789,0.0801,0.0913,0.0936,0.0635,0.0635,0.0635,0,0.026,0.0275,0.027,0.0293,0.0324,0.0317,0.0388,0.0414,0.0406,0.0507,0.0521,0.0584,0.0641,0.0663,0.0679,0.07,0.0791,0.071,0.0705,0.0697,0.0893,0.0906,0.0918,0.0779,0.078,0.078,0,0,0.0277,0.0268,0.0309,0.0302,0.0315,0.0372,0.0393,0.0428,0.0478,0.0502,0.0556,0.0607,0.0641,0.0671,0.0704,0.0728,0.0827,0.0725,0.0718,0.0712,0.0701,0.0893,0.0905,0.0781,0.0781,0.0781,0,0,0.0293,0.032,0.0337,0.0327,0.0362,0.042,0.043,0.0468,0.0517,0.0528,0.0597,0.0614,0.0643,0.0682,0.0685,0.0713,0.0744,0.0745,0.0684,0.0677,0.067,0.0647,0.0732,0,0,0,0,0,0.0331,0.0312,0.0326,0.0331,0.0373,0.0404,0.0414,0.0471,0.05,0.0505,0.0564,0.0598,0.0695,0.0699,0.0712,0.0698,0.079,0.0788,0.0787,0.0714,0.0705,0.0698,0,0,0,0,0,0,0.0333,0.0336,0.0328,0.0377,0.0389,0.0405,0.0451,0.0467,0.0501,0.0509,0.0586,0.06,0.0644,0.0696,0.0707,0.0693,0.0728,0.0789,0.0788,0.0786,0.0711,0.0703,0.0697,0,0,0,0,0,0.0335,0.0338,0.0383,0.038,0.039,0.046,0.0452,0.0466,0.0496,0.0565,0.0581,0.0539,0.0641,0.0655,0.0703,0.0686,0.0721,0.0725,0.0788,0.0787,0.0786,0.0707,0,0,0,0,0,0,0.0337,0.0356,0.0388,0.0394,0.039,0.0461,0.0471,0.0464,0.0552,0.0566,0.052,0.0525,0.064,0.0651,0.0661,0.0681,0.0715,0.0719,0.0722,0.0787,0.0786,0.0786,0,0,0,0,0,0,0.0356,0.036,0.0391,0.04,0.0409,0.0462,0.047,0.0505,0.0552,0.0502,0.0509,0.0521,0.0631,0.0648,0.0656,0.0708,0.0711,0.0715,0.0717,0.0719,0.0787,0.0786,0,0,0,0,0,0,0.036,0.0364,0.0399,0.0405,0.0413,0.0492,0.0496,0.054,0.0548,0.0497,0.0552,0.0554,0.0627,0.0636,0.0652,0.07,0.0706,0.0711,0.0714,0.0715,0.0717,0,0,0,0,0,0,0,0.0363,0.031,0.0349,0.0409,0.0416,0.0456,0.0458,0.046,0.0548,0.055,0.0551,0.0553,0.069,0.0694,0.0698,0.0693,0,0,0.0711,0.0712,0,0,0,0,0,0,0,0,0.0311,0.031,0.0349,0.0351,0.0352,0.0457,0.0458,0.046,0.0549,0.055,0.0551,0.0552,0.0691,0.0694,0.0697,0,0,0,0,0,0,0,0,0,0,0,0,0,0,0,0.0349,0.035,0,0.0457,0.0458,0.0459,0.0549,0.055,0.0551,0.0552,0.0692,0.0694,0.0697,0,0,0,0,0,0,0,0,0,0,0,0,0,0,0,0,0,0,0,0,0,0,0,0,0,0,0,0,0,0,0,0,0,0,0,0,0,0,0,0,0,0,0,0,0,0,0,0,0,0,0,0,0,0,0,0,0,0,0,0,0,0,0,0,0,0,0,0,0]}]]]